{"data":{"norad_id":64177,"intl_designator":"2025-113H","name":"STARLINK-34164","alt_names":[],"object_type":"PAYLOAD","status":"ACTIVE","operator":null,"country":"US","launch_date":"2025-05-28","launch_site_code":"AFETR","launch_vehicle":null,"mission":null,"orbit_class":"UNKNOWN","rcs_meters":null,"size_class":null,"mass_kg":null,"dimensions":null,"purposes":["comms"],"wikipedia_slug":null,"has_3d_model":false,"image_url":null,"decayed_at":null,"tle_current":{"epoch":"2026-05-25T02:49:19.345728Z","epoch_age_seconds":62128,"freshness":"FRESH","line1":"1 64177U 25113H   26145.11758502  .00017246  00000+0  59285-3 0  9995","line2":"2 64177  53.1611  96.3407 0001320  86.4759 273.6393 15.30210613 56767","mean_motion":15.30210613,"eccentricity":0.000132,"inclination_deg":53.1611,"raan_deg":96.3407,"arg_perigee_deg":86.4759,"mean_anomaly_deg":273.6393,"bstar":0.00059285,"rev_number":5676,"period_min":94.104693025025,"perigee_km":474.27874280718,"apogee_km":476.08801938779,"semimajor_km":6853.3203810975,"source":"CELESTRAK","updated_at":"2026-05-25T13:38:20.310527Z"}}}